,,Stat5,,Stat1,,Stat2,,Stat3,,Stat4,,Wind1,,Wind1,
time,status,PA1M_AVG,status,PR1M_SUM,status,RH1M_AVG,status,SR1M_AVG,status,TA1M_AVG,status,W1dAve1m,status,W1sAve1m,
2001-03-25, 00:00:00,VALID,917.837,VALID,0,VALID,93.234,VALID,0,VALID,19.5889,VALID,90,VALID,0,
2001-03-25, 00:01:00,VALID,917.816,VALID,0,VALID,93.2862,VALID,0,VALID,19.5986,VALID,90,VALID,0,
2001-03-25, 00:02:00,VALID,917.804,VALID,0,VALID,93.2175,VALID,0.0169808,VALID,19.5986,VALID,90,VALID,0,
2001-03-25, 00:03:00,VALID,917.793,VALID,0,VALID,93.098,VALID,0.0169808,VALID,19.5693,VALID,90,VALID,0,
2001-03-25, 00:04:00,VALID,917.78,VALID,0,VALID,93.1552,VALID,0,VALID,19.5469,VALID,90,VALID,0,
2001-03-25, 00:05:00,VALID,917.774,VALID,0,VALID,93.3129,VALID,-0.0169808,VALID,19.5211,VALID,90,VALID,0,
2001-03-25, 00:06:00,VALID,917.758,VALID,0,VALID,93.5163,VALID,0.0169808,VALID,19.4952,VALID,90,VALID,0,
2001-03-25, 00:07:00,VALID,917.761,VALID,0,VALID,93.5062,VALID,0.0169808,VALID,19.4433,VALID,88,VALID,0.0405016,
2001-03-25, 00:08:00,VALID,917.762,VALID,0,VALID,93.8037,VALID,0,VALID,19.4145,VALID,79,VALID,0.380425,
2001-03-25, 00:09:00,VALID,917.751,VALID,0,VALID,94.0415,VALID,0,VALID,19.4304,VALID,79,VALID,0.174409,
2001-03-25, 00:10:00,VALID,917.75,VALID,0,VALID,94.0186,VALID,0,VALID,19.4302,VALID,79,VALID,0.157689,
2001-03-25, 00:11:00,VALID,917.766,VALID,0,VALID,93.9652,VALID,0.0169808,VALID,19.4331,VALID,79,VALID,0.0564236,
2001-03-25, 00:12:00,VALID,917.776,VALID,0,VALID,94.0212,VALID,0,VALID,19.4503,VALID,78,VALID,0.212416,
2001-03-25, 00:13:00,VALID,917.762,VALID,0,VALID,94.0504,VALID,0,VALID,19.4537,VALID,58,VALID,0.119141,
2001-03-25, 00:14:00,VALID,917.78,VALID,0,VALID,94.072,VALID,0,VALID,19.4401,VALID,53,VALID,0.296186,
2001-03-25, 00:15:00,VALID,917.777,VALID,0,VALID,94.2145,VALID,0,VALID,19.453,VALID,72,VALID,0.103413,
2001-03-25, 00:16:00,VALID,917.777,VALID,0,VALID,94.0072,VALID,0.0169808,VALID,19.453,VALID,84,VALID,0.227679,
2001-03-25, 00:17:00,VALID,917.777,VALID,0,VALID,94.1,VALID,0.0169808,VALID,19.4242,VALID,89,VALID,0,
2001-03-25, 00:18:00,VALID,917.791,VALID,0,VALID,94.2717,VALID,0,VALID,19.3949,VALID,81,VALID,0,
2001-03-25, 00:19:00,VALID,917.793,VALID,0,VALID,94.3696,VALID,0.0169808,VALID,19.3919,VALID,83,VALID,0,
2001-03-25, 00:20:00,VALID,917.791,VALID,0,VALID,94.3938,VALID,0,VALID,19.405,VALID,85,VALID,0,
2001-03-25, 00:21:00,VALID,917.789,VALID,0,VALID,94.4255,VALID,-0.0169808,VALID,19.3797,VALID,84,VALID,0,
2001-03-25, 00:22:00,VALID,917.779,VALID,0,VALID,94.5781,VALID,-0.101885,VALID,19.3608,VALID,76,VALID,0,
2001-03-25, 00:23:00,VALID,917.778,VALID,0,VALID,94.6557,VALID,-0.0849042,VALID,19.3834,VALID,75,VALID,0,
2001-03-25, 00:24:00,VALID,917.762,VALID,0,VALID,94.5947,VALID,-0.101885,VALID,19.3968,VALID,73,VALID,0,
2001-03-25, 00:25:00,VALID,917.742,VALID,0,VALID,94.54,VALID,-0.101885,VALID,19.4,VALID,73,VALID,0,
2001-03-25, 00:26:00,VALID,917.731,VALID,0,VALID,94.4637,VALID,-0.118866,VALID,19.3871,VALID,73,VALID,0,
2001-03-25, 00:27:00,VALID,917.716,VALID,0,VALID,94.4472,VALID,-0.0849042,VALID,19.3837,VALID,73,VALID,0,
2001-03-25, 00:28:00,VALID,917.706,VALID,0,VALID,94.409,VALID,-0.101885,VALID,19.3966,VALID,73,VALID,0,
2001-03-25, 00:29:00,VALID,917.684,VALID,0,VALID,94.2221,VALID,-0.0849042,VALID,19.4224,VALID,73,VALID,0,
2001-03-25, 00:30:00,VALID,917.667,VALID,0,VALID,94.1916,VALID,-0.101885,VALID,19.4418,VALID,73,VALID,0,
2001-03-25, 00:31:00,VALID,917.648,VALID,0,VALID,94.245,VALID,-0.0849042,VALID,19.4485,VALID,73,VALID,0,
2001-03-25, 00:32:00,VALID,917.643,VALID,0,VALID,94.3938,VALID,-0.0679233,VALID,19.445,VALID,73,VALID,0,
2001-03-25, 00:33:00,VALID,917.64,VALID,0,VALID,94.334,VALID,-0.101885,VALID,19.4289,VALID,73,VALID,0,
2001-03-25, 00:34:00,VALID,917.619,VALID,0,VALID,94.3009,VALID,-0.101885,VALID,19.4063,VALID,92,VALID,0,
2001-03-25, 00:35:00,VALID,917.62,VALID,0,VALID,94.1941,VALID,-0.101885,VALID,19.3871,VALID,99,VALID,0,
2001-03-25, 00:36:00,VALID,917.617,VALID,0,VALID,94.3009,VALID,-0.0339617,VALID,19.3379,VALID,96,VALID,0,
2001-03-25, 00:37:00,VALID,917.617,VALID,0,VALID,94.1458,VALID,0.0339617,VALID,19.2987,VALID,68,VALID,0,
2001-03-25, 00:38:00,VALID,917.619,VALID,0,VALID,93.6537,VALID,0.0169808,VALID,19.295,VALID,56,VALID,0,
2001-03-25, 00:39:00,VALID,917.599,VALID,0,VALID,93.0726,VALID,-0.0169808,VALID,19.3243,VALID,67,VALID,0,
2001-03-25, 00:40:00,VALID,917.579,VALID,0,VALID,92.7648,VALID,0.0169808,VALID,19.3561,VALID,73,VALID,0,
2001-03-25, 00:41:00,VALID,917.556,VALID,0,VALID,92.4927,VALID,0.0169808,VALID,19.4182,VALID,44,VALID,0,
2001-03-25, 00:42:00,VALID,917.545,VALID,0,VALID,92.7521,VALID,0,VALID,19.45,VALID,41,VALID,0,
2001-03-25, 00:43:00,VALID,917.542,VALID,0,VALID,93.2493,VALID,0,VALID,19.4793,VALID,41,VALID,0,
2001-03-25, 00:44:00,VALID,917.522,VALID,0,VALID,93.4299,VALID,0.0339617,VALID,19.492,VALID,60,VALID,0,
2001-03-25, 00:45:00,VALID,917.505,VALID,0,VALID,93.3727,VALID,0.0339617,VALID,19.4724,VALID,77,VALID,0,
2001-03-25, 00:46:00,VALID,917.497,VALID,0,VALID,92.9975,VALID,0.0339617,VALID,19.4465,VALID,83,VALID,0,
2001-03-25, 00:47:00,VALID,917.468,VALID,0,VALID,92.8348,VALID,-0.0169808,VALID,19.3979,VALID,83,VALID,0,
2001-03-25, 00:48:00,VALID,917.452,VALID,0,VALID,93.023,VALID,0.0339617,VALID,19.3887,VALID,83,VALID,0.234592,
2001-03-25, 00:49:00,VALID,917.433,VALID,0,VALID,93.1234,VALID,0,VALID,19.3631,VALID,86,VALID,0.713542,
2001-03-25, 00:50:00,VALID,917.392,VALID,0,VALID,93.1018,VALID,0,VALID,19.3439,VALID,96,VALID,0.706826,
2001-03-25, 00:51:00,VALID,917.356,VALID,0,VALID,93.2353,VALID,0,VALID,19.3273,VALID,90,VALID,0.779297,
2001-03-25, 00:52:00,VALID,917.331,VALID,0,VALID,93.1361,VALID,-0.0169808,VALID,19.3054,VALID,88,VALID,0.531033,
2001-03-25, 00:53:00,VALID,917.304,VALID,0,VALID,93.2887,VALID,0,VALID,19.2858,VALID,86,VALID,0.56065,
2001-03-25, 00:54:00,VALID,917.297,VALID,0,VALID,93.1603,VALID,0,VALID,19.2791,VALID,92,VALID,0.55067,
2001-03-25, 00:55:00,VALID,917.294,VALID,0,VALID,93.1488,VALID,-0.0169808,VALID,19.2664,VALID,92,VALID,0.494721,
2001-03-25, 00:56:00,VALID,917.283,VALID,0,VALID,93.0331,VALID,0,VALID,19.2398,VALID,86,VALID,0.714384,
2001-03-25, 00:57:00,VALID,917.288,VALID,0,VALID,92.7635,VALID,0.0169808,VALID,19.247,VALID,87,VALID,0.997677,
2001-03-25, 00:58:00,VALID,917.288,VALID,0,VALID,92.7699,VALID,0,VALID,19.2726,VALID,96,VALID,0.670272,
2001-03-25, 00:59:00,VALID,917.292,VALID,0,VALID,92.8729,VALID,0,VALID,19.2927,VALID,89,VALID,0.671429,
2001-03-25, 01:00:00,VALID,917.3,VALID,0,VALID,92.8526,VALID,0.0169808,VALID,19.2823,VALID,93,VALID,0.391295,
2001-03-25, 01:01:00,VALID,917.306,VALID,0,VALID,92.953,VALID,0,VALID,19.2567,VALID,76,VALID,0.441518,
2001-03-25, 01:02:00,VALID,917.289,VALID,0,VALID,93.1323,VALID,0,VALID,19.2537,VALID,88,VALID,0.506727,
2001-03-25, 01:03:00,VALID,917.284,VALID,0,VALID,93.1717,VALID,0,VALID,19.2468,VALID,99,VALID,0.352214,
2001-03-25, 01:04:00,VALID,917.274,VALID,0,VALID,93.0751,VALID,0,VALID,19.2306,VALID,99,VALID,0.394748,
2001-03-25, 01:05:00,VALID,917.264,VALID,0,VALID,93.1527,VALID,-0.0339617,VALID,19.2249,VALID,101,VALID,0.553248,
2001-03-25, 01:06:00,VALID,917.247,VALID,0,VALID,93.2684,VALID,0,VALID,19.208,VALID,110,VALID,0.42513,
2001-03-25, 01:07:00,VALID,917.248,VALID,0,VALID,93.4044,VALID,0,VALID,19.212,VALID,90,VALID,0.340278,
2001-03-25, 01:08:00,VALID,917.247,VALID,0,VALID,93.3472,VALID,0,VALID,19.2155,VALID,85,VALID,0.884663,
2001-03-25, 01:09:00,VALID,917.229,VALID,0,VALID,93.1438,VALID,0,VALID,19.2346,VALID,93,VALID,0.919196,
2001-03-25, 01:10:00,VALID,917.209,VALID,0,VALID,93.0204,VALID,-0.0169808,VALID,19.254,VALID,92,VALID,0.723818,
2001-03-25, 01:11:00,VALID,917.179,VALID,0,VALID,92.9924,VALID,-0.0339617,VALID,19.2736,VALID,83,VALID,0.36489,
2001-03-25, 01:12:00,VALID,917.164,VALID,0,VALID,92.9123,VALID,0,VALID,19.2729,VALID,77,VALID,0.717272,
2001-03-25, 01:13:00,VALID,917.156,VALID,0,VALID,92.8411,VALID,0,VALID,19.3213,VALID,87,VALID,0.513021,
2001-03-25, 01:14:00,VALID,917.144,VALID,0,VALID,92.747,VALID,-0.0169808,VALID,19.3638,VALID,76,VALID,0.428795,
2001-03-25, 01:15:00,VALID,917.138,VALID,0,VALID,92.5906,VALID,-0.0169808,VALID,19.3767,VALID,84,VALID,0.472039,
2001-03-25, 01:16:00,VALID,917.142,VALID,0,VALID,92.5792,VALID,0,VALID,19.3631,VALID,84,VALID,0.442857,
2001-03-25, 01:17:00,VALID,917.142,VALID,0,VALID,92.5563,VALID,-0.0169808,VALID,19.3931,VALID,85,VALID,0.489149,
2001-03-25, 01:18:00,VALID,917.128,VALID,0,VALID,92.4317,VALID,0,VALID,19.4125,VALID,89,VALID,0.413194,
2001-03-25, 01:19:00,VALID,917.121,VALID,0,VALID,92.4482,VALID,-0.0169808,VALID,19.3896,VALID,89,VALID,0.378689,
2001-03-25, 01:20:00,VALID,917.112,VALID,0,VALID,92.6784,VALID,-0.0509425,VALID,19.3767,VALID,89,VALID,0.363076,
2001-03-25, 01:21:00,VALID,917.121,VALID,0,VALID,92.7826,VALID,0,VALID,19.3573,VALID,86,VALID,0.408203,
2001-03-25, 01:22:00,VALID,917.108,VALID,0,VALID,92.7788,VALID,0,VALID,19.3504,VALID,82,VALID,0.335286,
2001-03-25, 01:23:00,VALID,917.099,VALID,0,VALID,92.8589,VALID,-0.0339617,VALID,19.3673,VALID,85,VALID,0.467516,
2001-03-25, 01:24:00,VALID,917.091,VALID,0,VALID,92.7127,VALID,-0.0509425,VALID,19.4093,VALID,101,VALID,0.547545,
2001-03-25, 01:25:00,VALID,917.062,VALID,0,VALID,92.4876,VALID,-0.0169808,VALID,19.4249,VALID,84,VALID,0.353885,
2001-03-25, 01:26:00,VALID,917.056,VALID,0,VALID,92.4584,VALID,-0.0339617,VALID,19.4348,VALID,90,VALID,0.185892,
2001-03-25, 01:27:00,VALID,917.033,VALID,0,VALID,92.5016,VALID,-0.0169808,VALID,19.4411,VALID,90,VALID,0.10663,
2001-03-25, 01:28:00,VALID,917.021,VALID,0,VALID,92.6008,VALID,0,VALID,19.4607,VALID,90,VALID,0,
2001-03-25, 01:29:00,VALID,916.991,VALID,0,VALID,92.7712,VALID,-0.0169808,VALID,19.4831,VALID,90,VALID,0.0433036,
2001-03-25, 01:30:00,VALID,916.977,VALID,0,VALID,92.6377,VALID,0,VALID,19.49,VALID,90,VALID,0.052426,
2001-03-25, 01:31:00,VALID,916.966,VALID,0,VALID,92.8335,VALID,-0.0339617,VALID,19.4729,VALID,90,VALID,0.0725446,
2001-03-25, 01:32:00,VALID,916.956,VALID,0,VALID,93.0471,VALID,-0.0339617,VALID,19.493,VALID,90,VALID,0,
2001-03-25, 01:33:00,VALID,916.94,VALID,0,VALID,93.0815,VALID,0,VALID,19.4932,VALID,90,VALID,0,
2001-03-25, 01:34:00,VALID,916.934,VALID,0,VALID,93.0624,VALID,0,VALID,19.4671,VALID,90,VALID,0,
2001-03-25, 01:35:00,VALID,916.899,VALID,0,VALID,92.9912,VALID,-0.0509425,VALID,19.4353,VALID,90,VALID,0.0894326,
2001-03-25, 01:36:00,VALID,916.892,VALID,0,VALID,93.1603,VALID,-0.0169808,VALID,19.3931,VALID,90,VALID,0,
2001-03-25, 01:37:00,VALID,916.894,VALID,0,VALID,93.3994,VALID,0.0169808,VALID,19.3695,VALID,90,VALID,0.00108507,
2001-03-25, 01:38:00,VALID,916.905,VALID,0,VALID,93.6893,VALID,0.0169808,VALID,19.3628,VALID,90,VALID,0.30366,
2001-03-25, 01:39:00,VALID,916.91,VALID,0,VALID,93.777,VALID,0.0169808,VALID,19.3268,VALID,90,VALID,0.275223,
2001-03-25, 01:40:00,VALID,916.912,VALID,0,VALID,93.9907,VALID,0,VALID,19.3081,VALID,90,VALID,0.26647,
2001-03-25, 01:41:00,VALID,916.918,VALID,0,VALID,94.2208,VALID,0,VALID,19.2754,VALID,90,VALID,0.101103,
2001-03-25, 01:42:00,VALID,916.921,VALID,0,VALID,94.5006,VALID,0,VALID,19.2853,VALID,58,VALID,0.156883,
2001-03-25, 01:43:00,VALID,916.928,VALID,0,VALID,94.4739,VALID,0.0169808,VALID,19.2885,VALID,53,VALID,0,
2001-03-25, 01:44:00,VALID,916.907,VALID,0,VALID,94.4141,VALID,0,VALID,19.2724,VALID,70,VALID,0.0158482,
2001-03-25, 01:45:00,VALID,916.896,VALID,0,VALID,94.4955,VALID,0,VALID,19.2436,VALID,94,VALID,0,
2001-03-25, 01:46:00,VALID,916.865,VALID,0,VALID,94.6176,VALID,0.0339617,VALID,19.2468,VALID,94,VALID,0.000892857,
2001-03-25, 01:47:00,VALID,916.864,VALID,0,VALID,94.7612,VALID,0,VALID,19.2401,VALID,94,VALID,0,
2001-03-25, 01:48:00,VALID,916.84,VALID,0,VALID,94.6214,VALID,0,VALID,19.253,VALID,99,VALID,0.110243,
2001-03-25, 01:49:00,VALID,916.83,VALID,0,VALID,94.3429,VALID,0.0169808,VALID,19.2784,VALID,111,VALID,0.201823,
2001-03-25, 01:50:00,VALID,916.821,VALID,0,VALID,93.9881,VALID,0,VALID,19.2915,VALID,121,VALID,0.229852,
2001-03-25, 01:51:00,VALID,916.788,VALID,0,VALID,93.894,VALID,0.0169808,VALID,19.3109,VALID,175,VALID,0.323351,
2001-03-25, 01:52:00,VALID,916.775,VALID,0,VALID,93.8368,VALID,0,VALID,19.337,VALID,184,VALID,0.27474,
2001-03-25, 01:53:00,VALID,916.755,VALID,0,VALID,93.833,VALID,0,VALID,19.3432,VALID,185,VALID,0.207237,
2001-03-25, 01:54:00,VALID,916.754,VALID,0,VALID,93.7719,VALID,0,VALID,19.3564,VALID,185,VALID,0,
2001-03-25, 01:55:00,VALID,916.733,VALID,0,VALID,93.7338,VALID,0.0169808,VALID,19.3526,VALID,185,VALID,0,
2001-03-25, 01:56:00,VALID,916.72,VALID,0,VALID,93.641,VALID,0,VALID,19.3653,VALID,185,VALID,0,
2001-03-25, 01:57:00,VALID,916.691,VALID,0,VALID,93.6295,VALID,0.0169808,VALID,19.366,VALID,185,VALID,0,
2001-03-25, 01:58:00,VALID,916.672,VALID,0,VALID,93.7096,VALID,0.0169808,VALID,19.3496,VALID,185,VALID,0,
2001-03-25, 01:59:00,VALID,916.649,VALID,0,VALID,93.7948,VALID,0.0169808,VALID,19.3139,VALID,185,VALID,0,
2001-03-25, 02:00:00,VALID,916.644,VALID,0,VALID,93.8762,VALID,0,VALID,19.2649,VALID,161,VALID,0,
2001-03-25, 02:01:00,VALID,916.638,VALID,0,VALID,94.0174,VALID,0.0169808,VALID,19.2334,VALID,106,VALID,0.245982,
2001-03-25, 02:02:00,VALID,916.636,VALID,0,VALID,94.1051,VALID,0.0169808,VALID,19.2043,VALID,93,VALID,0.655382,
2001-03-25, 02:03:00,VALID,916.635,VALID,0,VALID,94.3225,VALID,0.0679233,VALID,19.1815,VALID,77,VALID,0.647135,
2001-03-25, 02:04:00,VALID,916.643,VALID,0,VALID,94.3467,VALID,0.0339617,VALID,19.1914,VALID,74,VALID,0.709635,
2001-03-25, 02:05:00,VALID,916.647,VALID,0,VALID,94.3327,VALID,0.0339617,VALID,19.1981,VALID,79,VALID,0.609786,
2001-03-25, 02:06:00,VALID,916.646,VALID,0,VALID,94.3543,VALID,0,VALID,19.1951,VALID,87,VALID,0.636502,
2001-03-25, 02:07:00,VALID,916.627,VALID,0,VALID,94.4294,VALID,-0.0849042,VALID,19.1824,VALID,88,VALID,0.764974,
2001-03-25, 02:08:00,VALID,916.625,VALID,0,VALID,94.3035,VALID,-0.101885,VALID,19.1991,VALID,87,VALID,0.51912,
2001-03-25, 02:09:00,VALID,916.621,VALID,0,VALID,94.2068,VALID,-0.0849042,VALID,19.209,VALID,87,VALID,0.502009,
2001-03-25, 02:10:00,VALID,916.636,VALID,0,VALID,94.161,VALID,-0.0849042,VALID,19.2058,VALID,87,VALID,0.638725,
2001-03-25, 02:11:00,VALID,916.646,VALID,0,VALID,94.1178,VALID,-0.0849042,VALID,19.209,VALID,84,VALID,0.375689,
2001-03-25, 02:12:00,VALID,916.649,VALID,0,VALID,94.1013,VALID,-0.0339617,VALID,19.2152,VALID,84,VALID,0.303632,
2001-03-25, 02:13:00,VALID,916.648,VALID,0,VALID,94.0568,VALID,-0.0679233,VALID,19.2314,VALID,84,VALID,0.0911458,
2001-03-25, 02:14:00,VALID,916.639,VALID,0,VALID,94.0441,VALID,-0.0849042,VALID,19.2609,VALID,84,VALID,0,
2001-03-25, 02:15:00,VALID,916.652,VALID,0,VALID,93.9055,VALID,-0.101885,VALID,19.2865,VALID,84,VALID,0,
2001-03-25, 02:16:00,VALID,916.664,VALID,0,VALID,93.7401,VALID,-0.0679233,VALID,19.3128,VALID,91,VALID,0,
2001-03-25, 02:17:00,VALID,916.661,VALID,0,VALID,93.6206,VALID,-0.101885,VALID,19.3287,VALID,97,VALID,0,
2001-03-25, 02:18:00,VALID,916.645,VALID,0,VALID,93.6015,VALID,-0.101885,VALID,19.3451,VALID,97,VALID,0,
2001-03-25, 02:19:00,VALID,916.624,VALID,0,VALID,93.557,VALID,-0.101885,VALID,19.3454,VALID,97,VALID,0,
2001-03-25, 02:20:00,VALID,916.591,VALID,0,VALID,93.5011,VALID,-0.101885,VALID,19.332,VALID,97,VALID,0,
2001-03-25, 02:21:00,VALID,916.573,VALID,0,VALID,93.5138,VALID,-0.0849042,VALID,19.3384,VALID,97,VALID,0,
2001-03-25, 02:22:00,VALID,916.558,VALID,0,VALID,93.4731,VALID,0.0169808,VALID,19.3337,VALID,97,VALID,0,
2001-03-25, 02:23:00,VALID,916.548,VALID,0,VALID,93.5799,VALID,0,VALID,19.3238,VALID,97,VALID,0,
2001-03-25, 02:24:00,VALID,916.523,VALID,0,VALID,93.5939,VALID,0,VALID,19.34,VALID,97,VALID,0,
2001-03-25, 02:25:00,VALID,916.495,VALID,0,VALID,93.6232,VALID,0,VALID,19.3337,VALID,97,VALID,0,
2001-03-25, 02:26:00,VALID,916.485,VALID,0,VALID,93.6359,VALID,0.0339617,VALID,19.3365,VALID,97,VALID,0,
2001-03-25, 02:27:00,VALID,916.463,VALID,0,VALID,93.5341,VALID,0,VALID,19.3467,VALID,97,VALID,0,
2001-03-25, 02:28:00,VALID,916.434,VALID,0,VALID,93.3256,VALID,0.0169808,VALID,19.3171,VALID,97,VALID,0,
2001-03-25, 02:29:00,VALID,916.422,VALID,0,VALID,93.4261,VALID,0.0509425,VALID,19.2751,VALID,97,VALID,0,
2001-03-25, 02:30:00,VALID,916.418,VALID,0,VALID,93.6893,VALID,0.0169808,VALID,19.2369,VALID,97,VALID,0,
2001-03-25, 02:31:00,VALID,916.398,VALID,0,VALID,94.0034,VALID,0.0169808,VALID,19.2142,VALID,97,VALID,0,
2001-03-25, 02:32:00,VALID,916.392,VALID,0,VALID,94.156,VALID,0.0339617,VALID,19.2083,VALID,97,VALID,0,
2001-03-25, 02:33:00,VALID,916.372,VALID,0,VALID,94.217,VALID,0,VALID,19.1755,VALID,97,VALID,0,
2001-03-25, 02:34:00,VALID,916.369,VALID,0,VALID,94.4611,VALID,0,VALID,19.137,VALID,97,VALID,0,
2001-03-25, 02:35:00,VALID,916.363,VALID,0,VALID,94.7523,VALID,0,VALID,19.1047,VALID,97,VALID,0,
2001-03-25, 02:36:00,VALID,916.359,VALID,0,VALID,94.7117,VALID,0,VALID,19.0793,VALID,101,VALID,0,
2001-03-25, 02:37:00,VALID,916.348,VALID,0,VALID,94.8833,VALID,-0.0849042,VALID,19.0381,VALID,106,VALID,0.0874566,
2001-03-25, 02:38:00,VALID,916.327,VALID,0,VALID,95.1313,VALID,-0.0679233,VALID,19.0152,VALID,106,VALID,0.505345,
2001-03-25, 02:39:00,VALID,916.305,VALID,0,VALID,95.2559,VALID,-0.0509425,VALID,18.9668,VALID,106,VALID,0.484152,
2001-03-25, 02:40:00,VALID,916.297,VALID,0,VALID,95.6386,VALID,-0.0679233,VALID,18.9603,VALID,106,VALID,0.484164,
2001-03-25, 02:41:00,VALID,916.273,VALID,0,VALID,95.8103,VALID,-0.0849042,VALID,18.967,VALID,105,VALID,0.454963,
2001-03-25, 02:42:00,VALID,916.265,VALID,0,VALID,95.8701,VALID,-0.0679233,VALID,18.9802,VALID,105,VALID,0.227196,
2001-03-25, 02:43:00,VALID,916.268,VALID,0,VALID,95.9718,VALID,-0.0509425,VALID,19.0122,VALID,105,VALID,0.358774,
2001-03-25, 02:44:00,VALID,916.278,VALID,0,VALID,95.9082,VALID,-0.0679233,VALID,19.0443,VALID,105,VALID,0,
2001-03-25, 02:45:00,VALID,916.286,VALID,0,VALID,95.804,VALID,-0.0509425,VALID,19.09,VALID,105,VALID,0,
2001-03-25, 02:46:00,VALID,916.28,VALID,0,VALID,95.7251,VALID,-0.0679233,VALID,19.1056,VALID,105,VALID,0.015625,
2001-03-25, 02:47:00,VALID,916.266,VALID,0,VALID,95.6081,VALID,-0.0679233,VALID,19.1414,VALID,105,VALID,0.00303819,
2001-03-25, 02:48:00,VALID,916.262,VALID,0,VALID,95.4988,VALID,-0.0679233,VALID,19.17,VALID,105,VALID,0,
2001-03-25, 02:49:00,VALID,916.254,VALID,0,VALID,95.3513,VALID,-0.0339617,VALID,19.1961,VALID,105,VALID,0,
2001-03-25, 02:50:00,VALID,916.252,VALID,0,VALID,95.2406,VALID,-0.0339617,VALID,19.2217,VALID,105,VALID,0,
2001-03-25, 02:51:00,VALID,916.248,VALID,0,VALID,95.0944,VALID,-0.0679233,VALID,19.2316,VALID,105,VALID,0,
2001-03-25, 02:52:00,VALID,916.239,VALID,0,VALID,95.0664,VALID,-0.0679233,VALID,19.2448,VALID,105,VALID,0,
2001-03-25, 02:53:00,VALID,916.245,VALID,0,VALID,94.9761,VALID,-0.0849042,VALID,19.2671,VALID,105,VALID,0,
2001-03-25, 02:54:00,VALID,916.232,VALID,0,VALID,94.821,VALID,-0.0679233,VALID,19.2768,VALID,105,VALID,0,
2001-03-25, 02:55:00,VALID,916.232,VALID,0,VALID,94.5489,VALID,-0.0679233,VALID,19.2805,VALID,105,VALID,0,
2001-03-25, 02:56:00,VALID,916.237,VALID,0,VALID,94.4357,VALID,-0.0169808,VALID,19.2609,VALID,105,VALID,0,
2001-03-25, 02:57:00,VALID,916.219,VALID,0,VALID,94.3683,VALID,-0.0679233,VALID,19.2318,VALID,105,VALID,0,
2001-03-25, 02:58:00,VALID,916.21,VALID,0,VALID,94.526,VALID,-0.0509425,VALID,19.2003,VALID,105,VALID,0,
2001-03-25, 02:59:00,VALID,916.184,VALID,0,VALID,94.6315,VALID,-0.101885,VALID,19.1474,VALID,105,VALID,0,
2001-03-25, 03:00:00,VALID,916.158,VALID,0,VALID,94.821,VALID,-0.0849042,VALID,19.1255,VALID,105,VALID,0,
2001-03-25, 03:01:00,VALID,916.15,VALID,0,VALID,95.3284,VALID,-0.0509425,VALID,19.1086,VALID,105,VALID,0,
2001-03-25, 03:02:00,VALID,916.144,VALID,0,VALID,95.7823,VALID,-0.101885,VALID,19.1543,VALID,105,VALID,0,
2001-03-25, 03:03:00,VALID,916.148,VALID,0,VALID,95.7912,VALID,-0.0339617,VALID,19.1869,VALID,105,VALID,0,
2001-03-25, 03:04:00,VALID,916.158,VALID,0,VALID,95.8866,VALID,-0.0509425,VALID,19.1956,VALID,100,VALID,0,
2001-03-25, 03:05:00,VALID,916.173,VALID,0,VALID,95.7951,VALID,-0.101885,VALID,19.2314,VALID,100,VALID,0,
2001-03-25, 03:06:00,VALID,916.174,VALID,0,VALID,95.6119,VALID,-0.0169808,VALID,19.2768,VALID,106,VALID,0,
2001-03-25, 03:07:00,VALID,916.169,VALID,0,VALID,95.411,VALID,-0.0509425,VALID,19.2641,VALID,109,VALID,0,
2001-03-25, 03:08:00,VALID,916.152,VALID,0,VALID,95.4416,VALID,-0.0509425,VALID,19.2641,VALID,109,VALID,0.190584,
2001-03-25, 03:09:00,VALID,916.152,VALID,0,VALID,95.4441,VALID,-0.101885,VALID,19.2641,VALID,109,VALID,0.317634,
2001-03-25, 03:10:00,VALID,916.14,VALID,0,VALID,95.3665,VALID,-0.0169808,VALID,19.2604,VALID,109,VALID,0.35853,
2001-03-25, 03:11:00,VALID,916.109,VALID,0,VALID,95.2025,VALID,-0.0339617,VALID,19.2415,VALID,102,VALID,0.758042,
2001-03-25, 03:12:00,VALID,916.083,VALID,0,VALID,95.3258,VALID,-0.0509425,VALID,19.2256,VALID,99,VALID,0.801943,
2001-03-25, 03:13:00,VALID,916.054,VALID,0,VALID,95.5204,VALID,-0.101885,VALID,19.2122,VALID,85,VALID,0.92528,
2001-03-25, 03:14:00,VALID,916.029,VALID,0,VALID,95.5166,VALID,-0.0679233,VALID,19.2641,VALID,92,VALID,0.792188,
2001-03-25, 03:15:00,VALID,916.003,VALID,0,VALID,95.3869,VALID,-0.0509425,VALID,19.2897,VALID,80,VALID,0.769737,
2001-03-25, 03:16:00,VALID,916,VALID,0,VALID,95.2788,VALID,-0.0339617,VALID,19.3126,VALID,82,VALID,0.673661,
2001-03-25, 03:17:00,VALID,915.988,VALID,0,VALID,95.2114,VALID,-0.0339617,VALID,19.322,VALID,92,VALID,0.903212,
2001-03-25, 03:18:00,VALID,915.974,VALID,0,VALID,95.1084,VALID,-0.0679233,VALID,19.3417,VALID,94,VALID,0.901259,
2001-03-25, 03:19:00,VALID,915.972,VALID,0,VALID,94.9787,VALID,-0.0339617,VALID,19.3511,VALID,96,VALID,0.616102,
2001-03-25, 03:20:00,VALID,915.967,VALID,0,VALID,94.8782,VALID,-0.0849042,VALID,19.3472,VALID,88,VALID,0.640419,
2001-03-25, 03:21:00,VALID,915.99,VALID,0,VALID,94.821,VALID,-0.0509425,VALID,19.367,VALID,85,VALID,0.326389,
2001-03-25, 03:22:00,VALID,916.001,VALID,0,VALID,94.8363,VALID,0.0509425,VALID,19.369,VALID,85,VALID,0.24566,
2001-03-25, 03:23:00,VALID,916.016,VALID,0,VALID,94.8274,VALID,0.0339617,VALID,19.3854,VALID,85,VALID,0.195107,
2001-03-25, 03:24:00,VALID,916.025,VALID,0,VALID,94.7765,VALID,0.0679233,VALID,19.3951,VALID,85,VALID,0,
2001-03-25, 03:25:00,VALID,916.031,VALID,0,VALID,94.7841,VALID,0.0509425,VALID,19.4011,VALID,83,VALID,0.230363,
2001-03-25, 03:26:00,VALID,916.044,VALID,0,VALID,94.7015,VALID,0.0509425,VALID,19.4244,VALID,68,VALID,0.304917,
2001-03-25, 03:27:00,VALID,916.043,VALID,0,VALID,94.6354,VALID,0.0339617,VALID,19.4373,VALID,73,VALID,0.311867,
2001-03-25, 03:28:00,VALID,916.04,VALID,0,VALID,94.5095,VALID,0.0339617,VALID,19.4565,VALID,77,VALID,0.284255,
2001-03-25, 03:29:00,VALID,916.04,VALID,0,VALID,94.4993,VALID,0.0509425,VALID,19.4269,VALID,75,VALID,0.202679,
2001-03-25, 03:30:00,VALID,916.043,VALID,0,VALID,94.5769,VALID,0.0509425,VALID,19.4306,VALID,74,VALID,0.123766,
2001-03-25, 03:31:00,VALID,916.047,VALID,0,VALID,94.5603,VALID,0.0169808,VALID,19.4272,VALID,74,VALID,0.0665179,
2001-03-25, 03:32:00,VALID,916.041,VALID,0,VALID,94.6061,VALID,0.0339617,VALID,19.4406,VALID,74,VALID,0.0891927,
2001-03-25, 03:33:00,VALID,916.041,VALID,0,VALID,94.6379,VALID,0.0509425,VALID,19.4304,VALID,77,VALID,0.0878906,
2001-03-25, 03:34:00,VALID,916.039,VALID,0,VALID,94.6913,VALID,0.0509425,VALID,19.4242,VALID,86,VALID,0.232856,
2001-03-25, 03:35:00,VALID,916.055,VALID,0,VALID,94.7536,VALID,0.0679233,VALID,19.4244,VALID,80,VALID,0.297903,
2001-03-25, 03:36:00,VALID,916.084,VALID,0,VALID,94.7676,VALID,0.0339617,VALID,19.414,VALID,71,VALID,0.240885,
2001-03-25, 03:37:00,VALID,916.104,VALID,0,VALID,94.7129,VALID,0,VALID,19.4058,VALID,70,VALID,0.162109,
2001-03-25, 03:38:00,VALID,916.114,VALID,0,VALID,94.8909,VALID,0,VALID,19.4122,VALID,65,VALID,0.0931332,
2001-03-25, 03:39:00,VALID,916.129,VALID,0,VALID,94.8693,VALID,-0.0169808,VALID,19.4055,VALID,51,VALID,0.15067,
2001-03-25, 03:40:00,VALID,916.141,VALID,0,VALID,94.8782,VALID,0,VALID,19.3926,VALID,21,VALID,0.0451858,